This demonstration page uses our WeatherBlox Daily Observations layout. Learn more.

Left ArrowRight Arrow

39.29038, -76.61219

Hourly Observations for May 28, 2022

Temp ( °F °C ) Dew Point ( °F °C ) Humidity (%) Winds ( mph kmh ) Pressure ( in mb ) Visibility ( mi km ) Precip ( " mm )
12:54 am 00:54 Mostly Cloudy 65 18.3 63 17.2 93 93 SW 5 7 29.74 1007 10 16 0.00 0.00
1:54 am 01:54 Mostly Clear 65 18.3 62 16.7 90 90 SW 6 9 29.75 1007 10 16 0.00 0.00
2:54 am 02:54 Mostly Cloudy 65 18.3 62 16.7 90 90 SW 7 11 29.75 1007 10 16 0.00 0.00
3:54 am 03:54 Cloudy with Light Rain 65 18.3 62 16.7 90 90 WSW 10 17 29.75 1007 10 16 0.00 0.00
4:54 am 04:54 Mostly Cloudy 64 17.8 62 16.7 93 93 WSW 6 9 29.74 1007 10 16 0.03 0.76
5:54 am 05:54 Partly Cloudy 63 17.2 61 16.1 93 93 SSW 5 7 29.75 1007 10 16 0.00 0.00
6:54 am 06:54 Partly Cloudy 64 17.8 61 16.1 90 90 W 7 11 29.75 1008 10 16 0.00 0.00
7:54 am 07:54 Partly Cloudy 66 18.9 60 15.6 81 81 W 12 19 29.78 1008 10 16 0.00 0.00
8:54 am 08:54 Mostly Sunny 70 21.1 60 15.6 71 71 W 12 19 29.79 1009 10 16 0.00 0.00
9:54 am 09:54 Mostly Sunny 72 22.2 59 15 64 64 W 12 19 29.79 1009 10 16 0.00 0.00
10:54 am 10:54 Partly Cloudy 73 22.8 59 15 62 62 W 10 17 29.80 1009 10 16 0.00 0.00
11:54 am 11:54 Mostly Cloudy 75 23.9 58 14.4 55 55 W 13 20 29.80 1009 10 16 0.00 0.00
12:54 pm 12:54 Mostly Cloudy 75 23.9 58 14.4 55 55 W 12 19 29.80 1009 10 16 0.00 0.00
1:54 pm 13:54 Mostly Cloudy 78 25.6 58 14.4 50 50 W 15 24 29.80 1009 10 16 0.00 0.00
2:54 pm 14:54 Partly Cloudy 78 25.6 58 14.4 50 50 W 16 26 29.81 1009 10 16 0.00 0.00
3:54 pm 15:54 Mostly Cloudy 79 26.1 57 13.9 47 47 WNW 16 26 29.80 1009 10 16 0.00 0.00
4:54 pm 16:54 Mostly Cloudy 78 25.6 58 14.4 50 50 WNW 14 22 29.82 1010 10 16 0.00 0.00
5:54 pm 17:54 Mostly Cloudy 76 24.4 58 14.4 54 54 W 10 17 29.83 1010 10 16 0.00 0.00
6:54 pm 18:54 Mostly Cloudy 77 25 59 15 54 54 WSW 10 17 29.84 1011 10 16 0.00 0.00
7:54 pm 19:54 Mostly Cloudy 75 23.9 58 14.4 55 55 W 10 17 29.86 1011 10 16 0.00 0.00
8:54 pm 20:54 Mostly Clear 70 21.1 58 14.4 66 66 W 5 7 29.88 1012 10 16 0.00 0.00
9:54 pm 21:54 Mostly Clear 69 20.6 59 15 70 70 WSW 5 7 29.90 1013 10 16 0.00 0.00
10:54 pm 22:54 Mostly Clear 68 20 59 15 73 73 WNW 8 13 29.92 1013 10 16 0.00 0.00
11:54 pm 23:54 Mostly Clear 66 18.9 59 15 78 78 W 6 9 29.93 1014 10 16 0.00 0.00

Powered by AerisWeather